Location: Holcomb Observatory and Planetarium
(39.8415°N, 86.1714°W)
Time: 00:01:38
(UTC-04:00)

ISS - Visible Passes

Search period start: 01 October 2014 00:00
Search period end: 11 October 2014 00:00
Orbit: 413 x 416 km, 51.6° (Epoch: 30 September)

Date Brightness Start Highest point End Pass type
(mag) Time Alt. Az. Time Alt. Az. Time Alt. Az.
01 Oct -1.7 05:38:22 34° ESE 05:38:22 34° ESE 05:40:26 10° ESE visible
01 Oct -1.2 07:11:47 10° W 07:13:27 13° SW 07:15:08 10° SSW visible
02 Oct -1.8 06:25:07 22° SSW 06:25:07 22° SSW 06:27:15 10° S visible
04 Oct -0.3 21:24:29 10° SSW 21:24:33 10° SSW 21:24:33 10° SSW visible
05 Oct -2.0 20:35:48 10° SSW 20:38:13 25° SE 20:38:13 25° SE visible
06 Oct -1.3 19:47:40 10° SSE 19:49:34 15° SE 19:51:28 10° E visible
06 Oct -1.5 21:22:37 10° WSW 21:24:35 32° WSW 21:24:35 32° WSW visible
07 Oct -3.4 20:33:21 10° SW 20:36:39 77° SE 20:37:51 36° ENE visible
08 Oct -2.7 19:44:19 10° SSW 19:47:27 40° SE 19:50:36 10° ENE visible
08 Oct -1.2 21:21:21 10° W 21:23:50 26° NW 21:23:50 26° NW visible
09 Oct -2.1 20:31:39 10° WSW 20:34:48 40° NNW 20:36:46 19° NNE visible
10 Oct -3.0 19:42:08 10° WSW 19:45:26 68° NW 19:48:46 10° NE visible
10 Oct -0.6 21:20:27 10° WNW 21:22:26 16° NNW 21:22:26 16° NNW visible
